Weather History for Tupelo, MS

Change the Weather History Date:

Monday, May 20, 2013

  Actual Average Record
Temperature  
Mean Temperature 80 °F 72 °F  
Max Temperature 89 °F 83 °F 96 °F (1962)
Min Temperature 70 °F 61 °F 38 °F (1976)
Degree Days  
Heating Degree Days 0 0  
Month to date heating degree days 58 23  
Since 1 July heating degree days 2960 2955  
Cooling Degree Days 15 7  
Month to date cooling degree days 86 105  
Year to date cooling degree days 149 181  
Growing Degree Days 30 (Base 50)    
Moisture  
Dew Point 69 °F    
Average Humidity 74    
Maximum Humidity 93    
Minimum Humidity 55    
Precipitation  
Precipitation 0.00 in 0.17 in 2.09 in (2010)
Month to date precipitation 4.66 3.73  
Year to date precipitation 26.60 22.77  
Snow  
Snow 0.00 in 0.00 in - ()
Month to date snowfall 0.0 0.0  
Since 1 July snowfall T 2.1  
Snow Depth 0.00 in    
Sea Level Pressure  
Sea Level Pressure 29.96 in    
Wind  
Wind Speed 8 mph (SSW)    
Max Wind Speed 16 mph    
Max Gust Speed 22 mph    
Visibility 9 miles    
Events      
T = Trace of Precipitation, MM = Missing Value Source: NWS Daily Summary

Daily Weather History Graph

Daily Weather History Graph

Search for Another Location

Airport:

Trip Planner

Search our weather history database for the weather conditions in past years. The results will help you decide how hot, cold, wet, or windy it might be!

Date:

Astronomy

May. 20, 2013 Rise Set
Actual Time 5:49 AM CDT 7:54 PM CDT
Civil Twilight 5:21 AM CDT 8:22 PM CDT
Nautical Twilight 4:47 AM CDT 8:56 PM CDT
Astronomical Twilight 4:10 AM CDT 9:33 PM CDT
Moon 3:13 PM CDT (5/20) 2:31 AM CDT (5/20)
Length of Visible Light 15h 00m
Length of Day
14h 04m
Waxing Gibbous, 75% of the Moon is Illuminated
May 20
Waxing Gibbous
May 24
Full
May 31
Last Quarter
Jun 8
New
Jun 16
First Quarter

Hourly Weather History & Observations

Time (CDT) Temp. Heat Index Dew Point Humidity Pressure Visibility Wind Dir Wind Speed Gust Speed Precip Events Conditions
12:53 AM 73.9 °F - 69.1 °F 85% 29.96 in 10.0 mi South 8.1 mph - N/A   Haze
1:53 AM 73.0 °F - 69.1 °F 87% 29.93 in 10.0 mi SSW 9.2 mph - N/A   Haze
2:53 AM 73.0 °F - 69.1 °F 87% 29.92 in 10.0 mi SW 8.1 mph - N/A   Haze
3:53 AM 72.0 °F - 69.1 °F 91% 29.93 in 8.0 mi SSW 5.8 mph - N/A   Haze
4:53 AM 71.1 °F - 69.1 °F 93% 29.95 in 7.0 mi Calm Calm - N/A   Haze
5:21 AM 71.6 °F - 69.8 °F 94% 29.97 in 6.0 mi SW 3.5 mph - N/A   Haze
5:53 AM 72.0 °F - 69.1 °F 91% 29.97 in 7.0 mi SW 5.8 mph - N/A   Haze
6:18 AM 71.6 °F - 69.8 °F 94% 29.99 in 5.0 mi SSW 5.8 mph - N/A   Haze
6:53 AM 72.0 °F - 69.1 °F 91% 30.00 in 6.0 mi SSW 3.5 mph - N/A   Haze
7:53 AM 73.0 °F - 69.1 °F 87% 30.01 in 8.0 mi SW 5.8 mph - N/A   Overcast
8:53 AM 75.0 °F - 70.0 °F 84% 30.02 in 10.0 mi SW 6.9 mph - N/A   Overcast
9:12 AM 75.2 °F - 69.8 °F 83% 30.03 in 10.0 mi SSW 8.1 mph - N/A   Overcast
9:48 AM 78.8 °F - 69.8 °F 74% 30.02 in 10.0 mi Variable 4.6 mph - N/A   Mostly Cloudy
9:53 AM 80.1 °F 83.2 °F 70.0 °F 71% 30.00 in 10.0 mi SW 6.9 mph - N/A   Mostly Cloudy
10:50 AM 80.6 °F 83.9 °F 69.8 °F 70% 30.01 in 10.0 mi WSW 6.9 mph - N/A   Mostly Cloudy
10:53 AM 82.0 °F 85.9 °F 70.0 °F 67% 30.00 in 10.0 mi WSW 6.9 mph - N/A   Mostly Cloudy
11:07 AM 82.4 °F 86.3 °F 69.8 °F 66% 30.01 in 10.0 mi SW 9.2 mph - N/A   Mostly Cloudy
11:26 AM 82.4 °F 86.3 °F 69.8 °F 66% 30.02 in 10.0 mi WSW 6.9 mph - N/A   Mostly Cloudy
11:53 AM 82.9 °F 86.5 °F 69.1 °F 63% 30.00 in 10.0 mi SSW 10.4 mph - N/A   Partly Cloudy
12:53 PM 84.0 °F 88.4 °F 70.0 °F 63% 29.98 in 10.0 mi South 11.5 mph - N/A   Scattered Clouds
1:53 PM 87.1 °F 91.3 °F 69.1 °F 55% 29.97 in 10.0 mi SSW 11.5 mph - N/A   Mostly Cloudy
2:53 PM 89.1 °F 95.0 °F 71.1 °F 55% 29.95 in 10.0 mi SSW 13.8 mph 17.3 mph N/A   Scattered Clouds
3:53 PM 88.0 °F 92.1 °F 69.1 °F 53% 29.94 in 10.0 mi SSW 11.5 mph - N/A   Mostly Cloudy
4:53 PM 88.0 °F 92.1 °F 69.1 °F 53% 29.92 in 10.0 mi SW 12.7 mph - N/A   Scattered Clouds
5:53 PM 86.0 °F 90.1 °F 69.1 °F 57% 29.91 in 10.0 mi SSW 10.4 mph - N/A   Partly Cloudy
6:53 PM 84.0 °F 87.0 °F 68.0 °F 58% 29.89 in 10.0 mi South 8.1 mph - N/A   Clear
7:53 PM 82.0 °F 85.5 °F 69.1 °F 65% 29.89 in 10.0 mi South 6.9 mph - N/A   Clear
8:53 PM 80.1 °F 82.9 °F 69.1 °F 69% 29.90 in 10.0 mi South 6.9 mph - N/A   Clear
9:53 PM 79.0 °F - 69.1 °F 72% 29.90 in 10.0 mi South 10.4 mph - N/A   Clear
10:53 PM 78.1 °F - 69.1 °F 74% 29.92 in 10.0 mi South 10.4 mph - N/A   Clear
11:53 PM 75.9 °F - 69.1 °F 79% 29.93 in 10.0 mi SSW 6.9 mph - N/A   Clear